QPF
0.00 0.00 0.00 0.00 0.00 0.00 0.00 0.00 0.00 0.00 0.00 0.00 0.00 0.00 0.00 0.00 0.01 0.03 0.01 0.00 0.00 0.00 0.00 0.00 0.00 0.00 0.00 0.00 0.00 0.00 0.00 0.00 0.00 0.00 0.00 0.00 0.00 0.00 0.00 0.00 0.00 0.00 0.00 0.00
0.00 0.00 0.00 0.00 0.00 0.00 0.00 0.00 0.00 0.00 0.00 0.00 0.00 0.00 0.00 0.00 0.04 0.08 0.03 0.00 0.00 0.00 0.00 0.00 0.00 0.00 0.00 0.01 0.00 0.00 0.00 0.00 0.00 0.00 0.00 0.00 0.00 0.00 0.00 0.00 0.00 0.00 0.00 0.00
0.00 0.00 0.00 0.00 0.00 0.00 0.00 0.00 0.00 0.00 0.00 0.00 0.00 0.00 0.00 0.00 0.09 0.04 0.02 0.01 0.01 0.00 0.00 0.00 0.00 0.00 0.00 0.02 0.01 0.00 0.00 0.00 0.00 0.00 0.00 0.00 0.00 0.00 0.00 0.00 0.00 0.00 0.00 0.00
0.00 0.00 0.00 0.00 0.00 0.00 0.00 0.00 0.00 0.00 0.00 0.00 0.00 0.00 0.00 0.00 0.00 0.00 0.01 0.01 0.04 0.00 0.00 0.00 0.00 0.00 0.02 0.02 0.01 0.01 0.00 0.00 0.00 0.00 0.00 0.00 0.00 0.00 0.00 0.00 0.00 0.00 0.00 0.00
0.00 0.00 0.00 0.00 0.00 0.00 0.00 0.00 0.00 0.00 0.00 0.00 0.00 0.00 0.00 0.00 0.00 0.03 0.03 0.01 0.04 0.05 0.03 0.00 0.00 0.01 0.02 0.01 0.02 0.01 0.00 0.00 0.00 0.00 0.00 0.00 0.00 0.00 0.00 0.00 0.00 0.00 0.00 0.00
0.00 0.00 0.00 0.00 0.00 0.00 0.00 0.00 0.00 0.00 0.00 0.00 0.00 0.00 0.00 0.01 0.01 0.04 0.08 0.11 0.10 0.09 0.06 0.01 0.01 0.02 0.03 0.01 0.01 0.00 0.00 0.00 0.00 0.00 0.00 0.00 0.00 0.00 0.00 0.00 0.00 0.00 0.00 0.00
0.00 0.00 0.00 0.00 0.00 0.00 0.00 0.00 0.00 0.00 0.00 0.00 0.00 0.00 0.00 0.00 0.00 0.01 0.02 0.08 0.09 0.09 0.05 0.02 0.01 0.01 0.02 0.01 0.01 0.00 0.00 0.00 0.00 0.00 0.00 0.00 0.00 0.00 0.00 0.00 0.00 0.00 0.00 0.00
0.00 0.00 0.00 0.00 0.00 0.00 0.00 0.00 0.00 0.00 0.00 0.00 0.00 0.00 0.00 0.00 0.00 0.00 0.00 0.02 0.08 0.05 0.01 0.01 0.00 0.01 0.01 0.01 0.00 0.00 0.00 0.00 0.00 0.00 0.00 0.00 0.00 0.00 0.00 0.00 0.00 0.00 0.00 0.00
0.00 0.00 0.00 0.00 0.00 0.00 0.00 0.00 0.00 0.00 0.00 0.00 0.00 0.00 0.00 0.00 0.00 0.00 0.02 0.05 0.04 0.01 0.01 0.01 0.00 0.01 0.00 0.00 0.00 0.00 0.00 0.00 0.00 0.00 0.00 0.00 0.00 0.00 0.00 0.00 0.00 0.00 0.00 0.00
0.00 0.00 0.00 0.00 0.00 0.00 0.00 0.00 0.00 0.00 0.00 0.00 0.00 0.00 0.00 0.00 0.00 0.00 0.00 0.03 0.03 0.01 0.00 0.00 0.00 0.00 0.00 0.00 0.00 0.00 0.00 0.00 0.00 0.00 0.00 0.00 0.00 0.00 0.00 0.00 0.00 0.00 0.00 0.00
0.00 0.00 0.00 0.00 0.00 0.00 0.00 0.00 0.00 0.00 0.00 0.00 0.00 0.00 0.00 0.00 0.00 0.00 0.00 0.02 0.02 0.00 0.00 0.00 0.00 0.00 0.00 0.00 0.00 0.00 0.00 0.00 0.00 0.00 0.00 0.00 0.00 0.00 0.00 0.00 0.00 0.00 0.00 0.00
0.00 0.00 0.00 0.00 0.00 0.00 0.00 0.00 0.00 0.00 0.00 0.00 0.00 0.00 0.00 0.00 0.00 0.00 0.00 0.00 0.00 0.00 0.00 0.00 0.00 0.00 0.00 0.00 0.00 0.00 0.00 0.00 0.00 0.00 0.00 0.00 0.00 0.00 0.00 0.00 0.00 0.00 0.00 0.00
0.00 0.00 0.00 0.00 0.00 0.00 0.00 0.00 0.00 0.00 0.00 0.00 0.00 0.00 0.00 0.00 0.00 0.01 0.01 0.00 0.00 0.00 0.00 0.00 0.00 0.00 0.00 0.00 0.00 0.00 0.00 0.00 0.00 0.00 0.00 0.00 0.00 0.00 0.00 0.00 0.00 0.00 0.00 0.00
0.00 0.00 0.00 0.00 0.00 0.00 0.00 0.00 0.00 0.00 0.00 0.00 0.00 0.00 0.00 0.00 0.00 0.01 0.01 0.00 0.00 0.00 0.00 0.00 0.00 0.00 0.00 0.00 0.00 0.00 0.00 0.00 0.00 0.00 0.00 0.00 0.00 0.00 0.00 0.00 0.00 0.00 0.00 0.00
0.00 0.00 0.00 0.00 0.00 0.00 0.00 0.00 0.00 0.00 0.00 0.00 0.00 0.00 0.00 0.00 0.00 0.00 0.00 0.00 0.00 0.00 0.00 0.00 0.00 0.00 0.00 0.00 0.00 0.00 0.00 0.00 0.00 0.00 0.00 0.00 0.00 0.00 0.00 0.00 0.00 0.00 0.00 0.00
0.00 0.00 0.00 0.00 0.00 0.00 0.00 0.00 0.00 0.00 0.00 0.00 0.00 0.00 0.00 0.00 0.00 0.00 0.00 0.00 0.00 0.00 0.00 0.00 0.00 0.00 0.00 0.00 0.00 0.00 0.00 0.00 0.00 0.00 0.00 0.00 0.00 0.00 0.00 0.00 0.00 0.00 0.00 0.00
0.00 0.00 0.00 0.00 0.00 0.00 0.00 0.00 0.00 0.00 0.00 0.00 0.00 0.00 0.00 0.00 0.00 0.00 0.00 0.00 0.00 0.00 0.00 0.00 0.00 0.00 0.00 0.00 0.00 0.00 0.00 0.00 0.00 0.00 0.00 0.00 0.00 0.00 0.00 0.00 0.00 0.00 0.00 0.00
0.00 0.00 0.00 0.00 0.00 0.00 0.00 0.00 0.00 0.00 0.00 0.00 0.00 0.00 0.00 0.00 0.00 0.00 0.00 0.00 0.00 0.00 0.00 0.00 0.00 0.00 0.00 0.00 0.00 0.00 0.00 0.00 0.00 0.00 0.00 0.00 0.00 0.00 0.00 0.00 0.00 0.00 0.00 0.00
0.00 0.00 0.00 0.00 0.00 0.00 0.00 0.00 0.00 0.00 0.00 0.00 0.00 0.00 0.00 0.00 0.00 0.00 0.00 0.00 0.00 0.00 0.00 0.00 0.00 0.00 0.00 0.00 0.00 0.00 0.00 0.00 0.00 0.00 0.00 0.00 0.00 0.00 0.00 0.00 0.00 0.00 0.00 0.00
0.00 0.00 0.00 0.00 0.00 0.00 0.00 0.01 0.00 0.00 0.00 0.00 0.00 0.00 0.00 0.00 0.00 0.00 0.00 0.00 0.00 0.00 0.00 0.00 0.00 0.00 0.00 0.00 0.00 0.00 0.00 0.00 0.00 0.00 0.00 0.00 0.00 0.00 0.00 0.00 0.00 0.00 0.00 0.00
0.00 0.00 0.00 0.00 0.00 0.00 0.00 0.00 0.00 0.00 0.00 0.00 0.00 0.00 0.00 0.00 0.00 0.00 0.00 0.00 0.00 0.00 0.00 0.00 0.00 0.00 0.00 0.00 0.00 0.00 0.00 0.00 0.00 0.00 0.00 0.00 0.00 0.00 0.00 0.00 0.00 0.00 0.00 0.00
0.00 0.00 0.00 0.00 0.00 0.00 0.00 0.00 0.00 0.00 0.00 0.00 0.00 0.00 0.00 0.00 0.00 0.00 0.00 0.00 0.00 0.00 0.00 0.00 0.00 0.00 0.00 0.00 0.00 0.00 0.00 0.00 0.00 0.00 0.00 0.00 0.00 0.00 0.00 0.00 0.00 0.00 0.00 0.00
0.01 0.00 0.01 0.01 0.00 0.00 0.00 0.00 0.00 0.00 0.00 0.00 0.00 0.00 0.00 0.00 0.00 0.00 0.00 0.00 0.00 0.00 0.00 0.00 0.00 0.00 0.00 0.00 0.00 0.00 0.00 0.00 0.00 0.00 0.00 0.00 0.00 0.00 0.00 0.00 0.00 0.00 0.00 0.00
0.00 0.00 0.01 0.01 0.01 0.00 0.00 0.00 0.00 0.00 0.00 0.00 0.00 0.00 0.00 0.00 0.00 0.00 0.00 0.00 0.00 0.00 0.00 0.00 0.00 0.00 0.00 0.00 0.00 0.00 0.00 0.00 0.00 0.00 0.00 0.00 0.00 0.00 0.00 0.00 0.00 0.00 0.00 0.00
0.00 0.00 0.00 0.00 0.01 0.00 0.00 0.00 0.00 0.00 0.00 0.00 0.00 0.00 0.00 0.00 0.00 0.00 0.00 0.00 0.00 0.00 0.00 0.00 0.00 0.00 0.00 0.00 0.00 0.00 0.00 0.00 0.00 0.00 0.00 0.00 0.00 0.00 0.00 0.00 0.00 0.00 0.00 0.00
0.00 0.00 0.00 0.01 0.00 0.00 0.00 0.00 0.00 0.00 0.00 0.00 0.00 0.00 0.00 0.00 0.00 0.00 0.00 0.00 0.00 0.00 0.00 0.00 0.00 0.00 0.00 0.00 0.00 0.00 0.00 0.00 0.00 0.00 0.00 0.00 0.00 0.00 0.00 0.00 0.00 0.00 0.00 0.00
MSLP
1006.88 1007.61 1007.84 1007.68 1007.83 1008.23 1008.61 1008.87 1009.11 1008.74 1009.00 1009.52 1009.73 1010.05 1011.10 1011.41 1012.41 1013.34 1013.74 1014.36 1015.36 1016.16 1016.80 1017.39 1017.74 1018.26 1019.22 1020.31 1021.14 1021.24 1021.57 1021.52 1021.26 1021.43 1021.88 1022.30 1022.64 1022.73 1022.59 1022.31 1022.10 1021.79 1021.67 1021.58
1007.50 1007.51 1007.53 1007.48 1007.61 1007.93 1008.19 1008.49 1008.83 1009.33 1008.95 1009.84 1009.94 1009.96 1010.56 1010.67 1011.71 1012.77 1013.36 1014.08 1014.84 1016.20 1017.23 1017.79 1018.21 1018.71 1019.34 1020.19 1021.29 1021.63 1021.79 1021.75 1021.63 1021.67 1021.86 1022.27 1022.71 1022.85 1022.68 1022.64 1022.28 1021.94 1021.60 1021.43
1007.38 1007.03 1007.05 1007.13 1007.05 1007.23 1007.32 1008.08 1008.59 1008.82 1008.72 1010.20 1010.81 1010.68 1010.12 1010.25 1010.80 1011.51 1012.67 1013.23 1014.29 1015.08 1016.51 1017.70 1018.24 1018.81 1019.48 1020.14 1020.97 1021.90 1022.04 1021.98 1022.00 1022.08 1022.29 1022.64 1022.80 1022.85 1023.01 1022.89 1022.60 1022.09 1021.88 1021.62
1007.15 1006.57 1006.70 1006.63 1006.66 1006.64 1006.95 1006.56 1007.39 1008.57 1009.77 1010.52 1010.65 1011.56 1010.30 1010.09 1009.95 1010.86 1012.07 1013.30 1014.39 1015.28 1016.42 1017.14 1018.05 1018.94 1019.54 1020.46 1021.01 1021.75 1022.12 1022.26 1022.25 1022.22 1022.76 1022.98 1023.16 1023.11 1023.04 1022.86 1022.69 1022.30 1022.03 1021.80
1006.46 1006.10 1006.10 1006.16 1005.78 1005.79 1006.13 1006.24 1007.11 1007.70 1009.23 1010.07 1011.26 1011.99 1011.03 1010.69 1011.57 1012.10 1013.15 1013.83 1014.50 1015.61 1016.41 1016.88 1018.00 1018.88 1019.47 1020.48 1021.38 1021.74 1022.16 1022.42 1022.41 1022.33 1022.68 1022.95 1023.23 1023.04 1023.04 1023.03 1022.92 1022.56 1021.96 1021.62
1006.46 1005.54 1005.49 1005.11 1005.13 1005.16 1005.62 1006.37 1007.27 1008.26 1009.69 1010.44 1010.49 1011.46 1012.42 1012.06 1012.20 1012.90 1013.35 1013.65 1015.89 1016.60 1017.09 1017.98 1018.12 1018.88 1019.56 1020.49 1021.09 1021.62 1022.10 1022.58 1022.39 1022.55 1022.77 1022.76 1022.91 1023.16 1023.12 1023.01 1022.93 1022.60 1022.24 1021.67
1006.38 1005.76 1004.99 1004.85 1005.06 1004.90 1005.62 1007.09 1008.24 1009.43 1010.24 1010.52 1010.16 1011.24 1011.42 1011.34 1011.36 1010.87 1011.45 1012.64 1014.54 1015.88 1016.37 1017.69 1018.37 1019.31 1019.44 1020.54 1021.24 1021.57 1022.08 1022.51 1022.28 1022.70 1022.88 1022.69 1022.86 1022.97 1022.93 1022.83 1022.91 1022.74 1022.42 1022.03
1006.57 1005.55 1004.39 1003.89 1004.21 1004.44 1005.30 1006.51 1008.15 1009.49 1010.59 1010.63 1010.55 1011.05 1010.37 1010.26 1010.67 1011.38 1011.44 1011.04 1012.64 1013.79 1015.56 1016.79 1017.66 1018.96 1018.96 1020.26 1020.85 1021.42 1022.02 1022.09 1022.34 1022.72 1022.78 1022.72 1022.75 1022.86 1022.81 1022.75 1022.68 1022.54 1022.22 1021.85
1005.99 1004.93 1003.67 1003.19 1003.26 1003.71 1004.77 1005.86 1006.81 1008.73 1009.97 1010.74 1010.71 1010.94 1010.06 1010.22 1009.91 1010.77 1011.54 1012.05 1013.07 1013.60 1014.72 1015.92 1017.04 1018.32 1018.93 1019.92 1020.42 1021.05 1021.72 1021.88 1022.27 1022.47 1022.52 1022.61 1022.60 1022.68 1022.65 1022.56 1022.47 1022.32 1022.05 1021.55
1005.23 1004.89 1003.75 1003.26 1003.23 1003.33 1003.74 1004.91 1006.89 1008.59 1009.98 1010.74 1010.64 1010.83 1010.12 1010.07 1009.65 1009.66 1010.10 1010.94 1012.14 1012.84 1014.18 1015.32 1016.54 1017.82 1018.66 1019.22 1020.06 1020.78 1021.12 1021.54 1021.82 1022.14 1022.46 1022.48 1022.50 1022.55 1022.47 1022.33 1022.19 1022.05 1021.86 1021.52
1004.58 1005.13 1004.07 1003.70 1003.52 1003.50 1003.99 1004.63 1006.05 1007.58 1008.86 1009.87 1010.33 1009.94 1008.28 1008.63 1009.17 1009.88 1009.94 1010.72 1011.49 1012.81 1013.72 1014.95 1016.11 1017.25 1018.03 1018.87 1019.76 1020.50 1020.95 1021.18 1021.85 1022.25 1022.36 1022.40 1022.35 1022.33 1022.29 1022.26 1022.16 1021.92 1021.64 1021.37
1003.74 1004.90 1004.90 1004.13 1003.08 1003.10 1003.41 1003.81 1005.10 1007.03 1008.48 1009.23 1009.24 1008.15 1007.03 1007.37 1008.34 1009.47 1009.86 1010.63 1011.19 1012.07 1013.34 1014.66 1015.89 1016.81 1017.74 1018.63 1019.40 1020.11 1020.53 1021.11 1021.52 1021.93 1022.26 1022.24 1022.32 1022.21 1022.16 1022.12 1022.00 1021.67 1021.58 1021.21
1003.20 1004.53 1005.06 1004.45 1003.47 1002.63 1002.76 1003.05 1003.88 1005.31 1006.77 1008.04 1008.42 1007.34 1006.65 1007.14 1008.51 1009.10 1009.74 1010.60 1011.21 1012.00 1013.46 1014.70 1015.67 1016.58 1017.05 1018.09 1018.88 1019.59 1020.32 1020.97 1021.46 1021.81 1022.10 1022.35 1022.42 1022.25 1022.07 1022.05 1021.85 1021.63 1021.58 1021.36
1001.83 1003.55 1004.38 1004.53 1003.48 1002.66 1002.50 1002.62 1003.18 1004.34 1005.95 1006.47 1006.47 1006.30 1006.83 1007.09 1007.72 1008.62 1009.36 1010.16 1010.84 1011.84 1013.14 1014.45 1015.55 1016.16 1016.93 1017.68 1018.31 1019.12 1019.99 1020.61 1021.19 1021.56 1021.85 1022.11 1022.18 1021.95 1021.91 1021.81 1021.75 1021.65 1021.50 1021.39
1001.70 1003.55 1003.82 1003.31 1002.84 1002.33 1002.19 1002.43 1002.61 1003.70 1003.66 1004.65 1004.56 1005.07 1005.44 1005.85 1006.60 1007.08 1008.06 1009.74 1010.86 1012.00 1013.18 1014.12 1014.92 1015.78 1016.70 1017.48 1018.01 1018.83 1019.60 1020.35 1020.93 1021.40 1021.65 1021.72 1021.60 1021.59 1021.76 1021.71 1021.59 1021.57 1021.47 1021.34
1002.00 1003.05 1003.50 1003.32 1002.65 1002.27 1002.34 1002.28 1002.19 1002.29 1002.59 1003.07 1003.33 1004.05 1003.93 1004.98 1006.19 1007.12 1007.86 1009.01 1010.09 1011.40 1012.54 1013.49 1014.58 1015.52 1016.20 1016.84 1017.71 1018.51 1019.27 1020.01 1020.56 1020.97 1021.25 1021.42 1021.34 1021.47 1021.52 1021.55 1021.55 1021.44 1021.42 1021.35
1002.71 1003.18 1004.08 1003.90 1002.95 1002.70 1002.83 1002.61 1002.45 1002.33 1002.19 1002.74 1003.54 1003.53 1003.91 1005.13 1005.55 1006.39 1007.37 1008.29 1009.44 1010.55 1011.54 1012.70 1013.80 1014.80 1015.51 1016.34 1017.30 1018.19 1018.94 1019.59 1020.21 1020.57 1020.86 1021.12 1021.11 1021.30 1021.33 1021.38 1021.40 1021.35 1021.30 1021.24
1002.82 1003.52 1004.18 1004.56 1003.94 1003.69 1003.35 1002.60 1002.32 1002.60 1002.51 1002.44 1003.09 1003.66 1003.70 1004.13 1004.68 1005.81 1006.59 1007.75 1009.11 1009.96 1011.16 1012.32 1013.33 1014.49 1015.32 1016.13 1017.17 1017.98 1018.73 1019.34 1019.78 1020.18 1020.44 1020.59 1020.84 1021.01 1021.14 1021.25 1021.20 1021.14 1021.11 1021.09
1002.36 1003.48 1004.81 1005.22 1005.18 1004.56 1003.47 1002.79 1002.55 1002.49 1002.72 1002.38 1002.92 1003.78 1004.42 1004.97 1005.76 1006.92 1006.75 1006.88 1007.79 1008.99 1010.21 1011.48 1012.72 1014.17 1015.35 1016.17 1017.00 1017.81 1018.67 1019.10 1019.52 1019.81 1020.02 1020.24 1020.24 1020.53 1020.89 1020.99 1020.94 1020.92 1020.89 1020.86
1002.33 1002.62 1004.39 1005.77 1005.68 1005.03 1003.57 1002.76 1002.42 1002.52 1002.63 1002.29 1002.35 1003.02 1003.80 1005.54 1006.66 1006.76 1007.15 1007.80 1008.74 1009.63 1010.69 1011.97 1013.29 1014.53 1015.47 1016.38 1016.84 1017.73 1018.47 1018.95 1019.30 1019.36 1019.52 1019.89 1020.07 1020.38 1020.67 1020.61 1020.65 1020.59 1020.59 1020.65
1003.43 1004.33 1005.01 1005.74 1005.51 1004.58 1002.86 1002.70 1002.70 1003.11 1003.29 1002.26 1002.45 1003.28 1004.29 1005.59 1006.42 1006.70 1007.46 1008.76 1009.41 1010.26 1011.43 1012.64 1013.71 1014.78 1015.68 1016.38 1016.96 1017.75 1018.27 1018.68 1018.74 1018.95 1019.39 1019.74 1020.05 1020.28 1020.41 1020.48 1020.46 1020.42 1020.37 1020.42
1004.17 1004.90 1005.48 1005.54 1005.32 1004.36 1002.30 1002.59 1002.53 1002.42 1002.52 1002.79 1003.08 1003.31 1004.52 1005.88 1006.75 1007.69 1008.37 1009.29 1010.30 1011.09 1012.28 1013.19 1014.25 1015.38 1016.03 1016.51 1017.03 1017.89 1018.38 1018.27 1018.43 1018.75 1019.27 1019.72 1020.02 1020.12 1020.16 1020.31 1020.39 1020.31 1020.28 1020.49
1005.32 1005.74 1005.49 1005.68 1004.97 1004.01 1003.32 1002.64 1001.65 1001.85 1002.69 1003.35 1003.55 1004.09 1004.85 1006.20 1007.42 1008.50 1009.26 1010.17 1011.13 1011.86 1012.91 1013.79 1014.62 1015.64 1016.23 1016.69 1017.04 1017.98 1018.44 1018.42 1018.82 1019.26 1019.60 1019.76 1019.99 1020.05 1020.12 1020.16 1020.30 1020.34 1020.49 1020.55
1006.08 1006.14 1005.91 1005.43 1005.16 1004.33 1003.68 1002.86 1002.23 1002.13 1002.68 1003.32 1003.91 1004.68 1005.38 1006.63 1008.07 1009.28 1010.08 1010.88 1011.68 1012.59 1013.43 1014.24 1015.05 1015.78 1016.45 1016.72 1017.30 1017.71 1018.25 1018.53 1019.02 1019.42 1019.61 1019.90 1020.12 1020.08 1020.01 1020.01 1019.97 1020.06 1020.10 1020.46
1006.70 1006.55 1006.41 1005.89 1005.16 1004.41 1003.88 1003.40 1003.07 1003.41 1003.39 1004.17 1004.97 1005.42 1006.28 1007.14 1008.81 1009.58 1010.71 1011.52 1012.18 1012.98 1013.82 1014.43 1015.12 1015.78 1016.38 1016.81 1017.38 1017.62 1017.95 1018.46 1019.06 1019.36 1019.43 1019.71 1019.96 1020.04 1019.96 1019.78 1019.69 1019.70 1019.59 1019.86
1006.45 1006.51 1006.42 1005.80 1005.78 1005.52 1005.37 1004.49 1003.93 1004.13 1004.29 1004.65 1005.20 1006.67 1007.38 1007.57 1008.87 1010.06 1011.06 1011.79 1012.54 1013.35 1014.04 1014.71 1015.31 1015.88 1016.42 1016.82 1017.31 1017.69 1017.93 1018.43 1019.04 1019.32 1019.40 1019.60 1019.76 1019.72 1019.62 1019.56 1019.28 1019.01 1019.18 1019.45
Thickness
5792 5769 5759 5781 5788 5790 5783 5774 5774 5794 5794 5780 5783 5779 5772 5780 5767 5756 5758 5757 5748 5744 5743 5737 5732 5724 5709 5694 5683 5677 5671 5666 5664 5658 5650 5643 5635 5628 5623 5619 5614 5609 5602 5596
5769 5756 5780 5791 5792 5787 5784 5770 5773 5777 5795 5778 5776 5777 5775 5780 5770 5759 5752 5755 5753 5740 5732 5729 5723 5716 5703 5689 5679 5670 5665 5661 5657 5654 5646 5640 5631 5624 5618 5612 5607 5602 5597 5591
5755 5776 5788 5786 5783 5781 5780 5766 5763 5771 5786 5772 5762 5758 5774 5780 5778 5774 5766 5764 5754 5746 5732 5722 5718 5711 5699 5688 5677 5665 5660 5656 5650 5645 5639 5631 5624 5619 5611 5605 5600 5596 5589 5583
5761 5786 5781 5779 5775 5783 5762 5797 5791 5780 5756 5735 5764 5715 5764 5775 5779 5777 5770 5754 5748 5740 5732 5723 5716 5706 5695 5683 5676 5664 5655 5649 5645 5639 5629 5623 5616 5611 5605 5600 5595 5591 5583 5576
5760 5775 5772 5769 5785 5794 5778 5801 5789 5786 5760 5754 5742 5722 5744 5767 5755 5758 5746 5745 5740 5731 5727 5723 5711 5702 5694 5681 5668 5661 5652 5642 5639 5634 5626 5618 5611 5606 5600 5593 5587 5583 5580 5574
5759 5790 5782 5787 5799 5799 5803 5789 5777 5767 5747 5725 5748 5734 5724 5740 5742 5739 5737 5739 5722 5715 5715 5709 5706 5698 5690 5677 5667 5658 5648 5638 5635 5630 5623 5617 5610 5601 5595 5589 5583 5578 5573 5570
5752 5760 5783 5792 5775 5794 5787 5752 5719 5721 5719 5718 5756 5740 5735 5752 5754 5763 5752 5739 5722 5716 5715 5705 5696 5689 5685 5673 5662 5654 5645 5636 5634 5627 5619 5614 5605 5598 5592 5586 5577 5572 5566 5561
5719 5725 5771 5794 5780 5771 5771 5757 5717 5707 5709 5727 5751 5732 5751 5765 5770 5763 5759 5758 5737 5728 5717 5707 5699 5687 5683 5670 5661 5653 5642 5637 5632 5623 5616 5610 5602 5593 5587 5581 5574 5568 5562 5557
5720 5737 5789 5797 5801 5791 5776 5760 5770 5738 5738 5718 5727 5738 5760 5762 5771 5764 5750 5744 5735 5733 5721 5711 5697 5684 5678 5668 5662 5654 5641 5637 5629 5620 5613 5605 5598 5591 5584 5578 5571 5565 5560 5555
5748 5736 5776 5790 5796 5798 5786 5788 5746 5728 5716 5708 5719 5720 5737 5749 5763 5771 5765 5752 5741 5734 5724 5710 5693 5680 5675 5672 5664 5652 5642 5634 5627 5616 5608 5602 5595 5588 5582 5577 5570 5564 5558 5552
5757 5742 5755 5779 5767 5767 5772 5763 5762 5747 5728 5712 5699 5715 5761 5762 5762 5759 5762 5753 5745 5733 5724 5705 5689 5682 5679 5672 5662 5647 5637 5631 5621 5613 5606 5600 5593 5587 5580 5573 5567 5561 5556 5550
5759 5735 5729 5748 5785 5791 5784 5774 5765 5729 5731 5721 5715 5722 5781 5775 5767 5761 5758 5751 5747 5736 5720 5701 5689 5685 5679 5668 5656 5642 5636 5628 5621 5612 5603 5597 5590 5584 5577 5570 5564 5559 5553 5549
5759 5727 5717 5730 5760 5784 5778 5781 5776 5758 5741 5721 5712 5725 5775 5773 5757 5756 5752 5747 5740 5729 5712 5699 5692 5685 5679 5663 5652 5643 5635 5628 5618 5608 5599 5591 5584 5579 5575 5568 5563 5558 5550 5545
5780 5737 5732 5719 5747 5771 5774 5781 5777 5759 5727 5737 5737 5752 5758 5757 5755 5751 5749 5745 5738 5726 5713 5700 5687 5679 5669 5659 5654 5646 5637 5627 5615 5606 5597 5589 5582 5578 5573 5567 5560 5554 5549 5541
5766 5736 5744 5756 5767 5778 5776 5772 5775 5755 5762 5745 5764 5758 5759 5762 5760 5760 5755 5739 5727 5716 5705 5696 5686 5675 5665 5660 5656 5646 5636 5623 5613 5603 5595 5589 5584 5578 5570 5564 5558 5552 5547 5540
5761 5739 5751 5758 5775 5773 5766 5769 5771 5781 5776 5765 5763 5765 5778 5769 5766 5755 5748 5737 5726 5714 5704 5696 5683 5675 5670 5664 5655 5645 5634 5622 5612 5603 5595 5587 5581 5575 5568 5561 5555 5550 5544 5537
5752 5739 5728 5728 5765 5761 5740 5756 5758 5770 5774 5763 5747 5763 5769 5760 5763 5751 5744 5737 5727 5718 5709 5699 5688 5679 5674 5665 5653 5642 5631 5620 5610 5602 5594 5586 5581 5573 5566 5560 5553 5548 5542 5535
5742 5737 5727 5718 5738 5711 5746 5765 5768 5761 5765 5768 5764 5764 5770 5769 5770 5758 5753 5741 5729 5722 5711 5700 5691 5679 5671 5661 5648 5637 5627 5618 5610 5602 5595 5587 5580 5571 5564 5558 5552 5546 5539 5533
5752 5734 5717 5707 5703 5727 5748 5760 5761 5757 5757 5772 5766 5766 5764 5757 5751 5744 5751 5751 5740 5730 5719 5706 5694 5677 5664 5655 5645 5635 5625 5617 5608 5601 5593 5586 5582 5573 5563 5557 5551 5544 5538 5532
5752 5749 5726 5707 5703 5697 5736 5759 5771 5770 5730 5775 5778 5771 5761 5745 5722 5728 5736 5736 5727 5721 5711 5696 5682 5669 5659 5649 5643 5633 5622 5612 5604 5601 5594 5586 5579 5571 5562 5557 5549 5544 5538 5530
5729 5725 5718 5699 5703 5717 5753 5762 5771 5729 5735 5777 5774 5763 5749 5734 5732 5737 5729 5720 5717 5710 5699 5686 5674 5663 5654 5645 5637 5628 5618 5610 5605 5600 5592 5584 5575 5567 5559 5554 5547 5542 5536 5530
5717 5711 5709 5707 5696 5706 5768 5765 5749 5757 5771 5767 5764 5764 5751 5734 5730 5724 5720 5713 5705 5698 5687 5676 5663 5652 5645 5638 5631 5621 5613 5610 5605 5598 5589 5581 5572 5565 5558 5551 5544 5539 5534 5527
5703 5706 5708 5713 5715 5735 5747 5758 5774 5772 5764 5761 5758 5754 5747 5735 5725 5717 5710 5702 5693 5686 5675 5664 5654 5646 5638 5632 5626 5616 5608 5604 5597 5589 5583 5577 5568 5562 5555 5548 5542 5534 5528 5521
5707 5707 5707 5719 5727 5732 5743 5754 5769 5772 5766 5761 5758 5751 5745 5731 5718 5707 5700 5693 5686 5676 5665 5655 5647 5641 5631 5627 5619 5613 5605 5599 5591 5583 5578 5570 5562 5556 5550 5545 5540 5533 5527 5520
5697 5702 5700 5712 5723 5734 5741 5752 5758 5754 5759 5752 5746 5743 5733 5725 5709 5701 5691 5685 5678 5668 5658 5650 5643 5636 5627 5622 5614 5609 5603 5595 5585 5580 5575 5566 5558 5552 5546 5542 5538 5532 5528 5521
5696 5695 5695 5703 5713 5716 5721 5738 5748 5746 5747 5747 5742 5727 5722 5719 5705 5694 5684 5677 5670 5660 5652 5644 5636 5629 5622 5618 5611 5603 5598 5591 5583 5576 5570 5563 5555 5548 5545 5539 5536 5533 5526 5521